This demonstration page uses our WeatherBlox Daily Observations layout. Learn more.

Left ArrowRight Arrow

34.02893, -84.19858

Hourly Observations for October 24, 2015

Temp ( °F °C ) Dew Point ( °F °C ) Humidity (%) Winds ( mph kmh ) Pressure ( in mb ) Visibility ( mi km ) Precip ( " mm )
12:53 am 00:53 Clear 57 13.9 57 13.9 100 100 Calm 30.14 1021 7 11 0.00 0.00
1:53 am 01:53 Clear with Mist and Fog 55 12.8 55 12.8 100 100 Calm 30.13 1020 5 8 0.00 0.00
1:59 am 01:59 Clear with Mist and Fog 55 12.8 55 12.8 100 100 Calm 30.15 1021 2 3 0.00 0.00
2:07 am 02:07 Clear with Mist and Fog 55 12.8 55 12.8 100 100 Calm 30.15 1021 3 5 0.00 0.00
2:53 am 02:53 Clear with Mist and Fog 56 13.3 56 13.3 100 100 Calm 30.13 1020 6 10 0.00 0.00
3:09 am 03:09 Clear with Mist and Fog 55 12.8 55 12.8 100 100 Calm 30.15 1021 2 3 0.00 0.00
3:19 am 03:19 Clear with Mist and Fog 56 13.3 56 13.3 100 100 Calm 30.15 1021 4 6 0.00 0.00
3:53 am 03:53 Clear with Mist and Fog 56 13.3 56 13.3 100 100 Calm 30.13 1020 6 10 0.00 0.00
4:32 am 04:32 Clear with Mist and Fog 55 13 55 13 100 100 Calm 30.15 1021 2 3 0.00 0.00
4:40 am 04:40 Clear with Fog 55 13 55 13 100 100 Calm 30.15 1021 1 1 0.00 0.00
4:49 am 04:49 Clear with Mist and Fog 54 12 54 12 100 100 Calm 30.15 1021 1 2 0.00 0.00
4:53 am 04:53 Clear with Mist and Fog 54 12.2 54 12.2 100 100 Calm 30.12 1020 1 2 0.00 0.00
5:01 am 05:01 Clear with Mist and Fog 55 12.8 54 12.2 96 96 Calm 30.15 1021 3 5 0.00 0.00
5:53 am 05:53 Clear 57 13.9 56 13.3 96 96 Calm 30.13 1020 10 16 0.00 0.00
6:53 am 06:53 Clear 56 13.3 56 13.3 100 100 Calm 30.15 1021 7 11 0.00 0.00
7:53 am 07:53 Sunny 58 14.4 56 13.3 93 93 Calm 30.16 1021 9 14 0.00 0.00
8:53 am 08:53 Sunny 62 16.7 59 15 90 90 Calm 30.17 1022 10 16 0.00 0.00
9:53 am 09:53 Sunny 63 17.2 58 14.4 84 84 VRB 3 6 30.18 1022 10 16 0.00 0.00
10:53 am 10:53 Sunny 67 19.4 59 15 76 76 ENE 3 6 30.19 1022 10 16 0.00 0.00
11:53 am 11:53 Sunny 72 22.2 60 15.6 66 66 Calm 30.19 1022 10 16 0.00 0.00
12:53 pm 12:53 Sunny 74 23.3 60 15.6 62 62 SSE 5 7 30.18 1022 10 16 0.00 0.00
1:53 pm 13:53 Partly Cloudy 74 23.3 60 15.6 62 62 VRB 5 7 30.16 1021 10 16 0.00 0.00
2:53 pm 14:53 Mostly Sunny 74 23.3 59 15 60 60 SSE 5 7 30.14 1021 10 16 0.00 0.00
3:53 pm 15:53 Sunny 75 23.9 60 15.6 60 60 SSE 5 7 30.13 1020 10 16 0.00 0.00
4:53 pm 16:53 Sunny 74 23.3 59 15 60 60 SSE 5 7 30.13 1020 10 16 0.00 0.00
5:53 pm 17:53 Mostly Sunny 72 22.2 60 15.6 66 66 ESE 3 6 30.12 1020 10 16 0.00 0.00
6:53 pm 18:53 Sunny 70 21.1 61 16.1 73 73 E 3 6 30.12 1020 10 16 0.00 0.00
7:53 pm 19:53 Clear 68 20 60 15.6 76 76 VRB 3 6 30.14 1021 10 16 0.00 0.00
8:53 pm 20:53 Clear 68 20 60 15.6 76 76 NE 6 9 30.15 1021 10 16 0.00 0.00
9:53 pm 21:53 Clear 66 18.9 61 16.1 84 84 VRB 5 7 30.16 1021 10 16 0.00 0.00
10:53 pm 22:53 Clear 65 18.3 61 16.1 87 87 VRB 5 7 30.16 1021 10 16 0.00 0.00
11:53 pm 23:53 Clear 63 17.2 60 15.6 90 90 E 5 7 30.15 1021 8 13 0.00 0.00

Powered by AerisWeather